Hallock, MN

2:48 AM CDT on May 29, 2017 (GMT -0500)
Hallock Municipal

Weather History for KHCO - May, 2013

Change the Weather History Date:

Tuesday, May 28, 2013

  Actual Average Record
Temperature  
Mean Temperature 65 °F -  
Max Temperature 73 °F 74 °F 96 °F (1969)
Min Temperature 57 °F 49 °F 18 °F (1947)
Growing Degree Days 15 (Base 50)    
Moisture  
Dew Point 56 °F    
Average Humidity 81    
Maximum Humidity 100    
Minimum Humidity 60    
Precipitation  
Precipitation 0.01 in - - ()
Sea Level Pressure  
Sea Level Pressure 29.66 in    
Wind  
Wind Speed 13 mph (SSE)    
Max Wind Speed 22 mph    
Max Gust Speed 26 mph    
Visibility 9 miles    
Events Rain    
Averages and records for this station are not official NWS values.
T = Trace of Precipitation, MM = Missing Value Source: NWS Daily Summary

Daily Weather History Graph

Daily Weather History Graph

Search for Another Location

Airport or City:

Trip Planner

Search our weather history database for the weather conditions in past years. The results will help you decide how hot, cold, wet, or windy it might be!

Date:

Astronomy

May. 28, 2013 Rise Set
Actual Time 5:32 AM CDT 9:18 PM CDT
Civil Twilight 4:51 AM CDT 9:59 PM CDT
Nautical Twilight 3:56 AM CDT 10:54 PM CDT
Astronomical Twilight 2:35 AM CDT 12:17 AM CDT
Moon No Moon Rise 9:30 AM CDT (5/28)
Length of Visible Light 17h 07m
Length of Day
15h 46m
Waning Gibbous, 82% of the Moon is Illuminated
May 28
Waning Gibbous
May 31
Last Quarter
Jun 8
New
Jun 16
First Quarter
Jun 23
Full

Hourly Weather History & Observations

Time (CDT) Temp. Dew Point Humidity Pressure Visibility Wind Dir Wind Speed Gust Speed Precip Events Conditions
12:13 AM 62.6 °F 53.6 °F 72% 29.77 in 10.0 mi SSE 12.7 mph - N/A   Overcast
12:33 AM 62.6 °F 53.6 °F 72% 29.76 in 10.0 mi SE 13.8 mph - N/A   Overcast
12:53 AM 62.6 °F 51.8 °F 68% 29.76 in 10.0 mi SSE 12.7 mph - N/A   Overcast
1:13 AM 62.6 °F 53.6 °F 72% 29.76 in 10.0 mi SSE 11.5 mph - N/A   Overcast
1:33 AM 60.8 °F 53.6 °F 77% 29.76 in 10.0 mi SSE 11.5 mph - N/A   Overcast
1:53 AM 60.8 °F 53.6 °F 77% 29.75 in 10.0 mi SSE 11.5 mph - N/A   Overcast
2:13 AM 60.8 °F 53.6 °F 77% 29.74 in 10.0 mi SSE 12.7 mph - N/A   Overcast
2:33 AM 60.8 °F 53.6 °F 77% 29.74 in 10.0 mi SSE 12.7 mph - N/A   Overcast
2:53 AM 60.8 °F 53.6 °F 77% 29.73 in 10.0 mi SSE 12.7 mph - N/A   Overcast
3:13 AM 60.8 °F 53.6 °F 77% 29.72 in 10.0 mi SSE 12.7 mph - N/A   Overcast
3:33 AM 60.8 °F 53.6 °F 77% 29.72 in 10.0 mi SSE 11.5 mph - N/A   Overcast
3:54 AM 59.0 °F 53.6 °F 82% 29.71 in 10.0 mi SE 11.5 mph - N/A   Overcast
4:13 AM 59.0 °F 53.6 °F 82% 29.71 in 10.0 mi SE 10.4 mph - N/A   Overcast
4:33 AM 57.2 °F 53.6 °F 88% 29.70 in 10.0 mi SE 11.5 mph - N/A   Mostly Cloudy
4:53 AM 57.2 °F 53.6 °F 88% 29.69 in 10.0 mi SE 12.7 mph - N/A   Scattered Clouds
5:13 AM 57.2 °F 53.6 °F 88% 29.69 in 10.0 mi SE 12.7 mph - N/A   Scattered Clouds
5:33 AM 59.0 °F 55.4 °F 88% 29.70 in 10.0 mi SE 10.4 mph - N/A   Overcast
5:53 AM 59.0 °F 55.4 °F 88% 29.70 in 10.0 mi SE 9.2 mph - N/A   Overcast
6:13 AM 59.0 °F 55.4 °F 88% 29.70 in 10.0 mi SE 9.2 mph - N/A   Overcast
6:33 AM 59.0 °F 55.4 °F 88% 29.71 in 10.0 mi SSE 8.1 mph - N/A   Overcast
6:53 AM 59.0 °F 55.4 °F 88% 29.71 in 10.0 mi SSE 8.1 mph - N/A   Overcast
7:13 AM 59.0 °F 55.4 °F 88% 29.71 in 10.0 mi SSE 6.9 mph - N/A   Overcast
7:33 AM 59.0 °F 55.4 °F 88% 29.70 in 7.0 mi SSE 8.1 mph - N/A   Overcast
7:53 AM 57.2 °F 55.4 °F 94% 29.70 in 3.0 mi SSE 11.5 mph - N/A   Overcast
8:13 AM 57.2 °F 55.4 °F 94% 29.70 in 7.0 mi SSE 13.8 mph - N/A   Overcast
8:33 AM 57.2 °F 55.4 °F 94% 29.69 in 7.0 mi SSE 11.5 mph - N/A   Overcast
8:53 AM 57.2 °F 55.4 °F 94% 29.69 in 7.0 mi SSE 10.4 mph - N/A   Overcast
9:13 AM 59.0 °F 55.4 °F 88% 29.69 in 7.0 mi SSE 11.5 mph - N/A   Overcast
9:33 AM 59.0 °F 55.4 °F 88% 29.68 in 7.0 mi SSE 13.8 mph - N/A Rain Light Rain
9:53 AM 57.2 °F 57.2 °F 100% 29.68 in 4.0 mi SSE 12.7 mph - N/A Rain Light Rain
10:13 AM 57.2 °F 57.2 °F 100% 29.67 in 3.0 mi SE 16.1 mph - N/A Rain Light Rain
10:33 AM 57.2 °F 57.2 °F 100% 29.67 in 4.0 mi SE 15.0 mph - N/A Rain Light Rain
10:53 AM 59.0 °F 57.2 °F 94% 29.67 in 5.0 mi SE 15.0 mph - 0.01 in Rain Light Rain
11:13 AM 59.0 °F 57.2 °F 94% 29.67 in 7.0 mi SE 16.1 mph - N/A   Light Drizzle
11:33 AM 59.0 °F 57.2 °F 94% 29.66 in 7.0 mi SE 17.3 mph - N/A   Light Drizzle
11:53 AM 60.8 °F 59.0 °F 94% 29.66 in 7.0 mi SSE 17.3 mph - N/A   Overcast
12:13 PM 60.8 °F 57.2 °F 88% 29.66 in 10.0 mi SSE 17.3 mph - N/A   Overcast
12:33 PM 59.0 °F 57.2 °F 94% 29.66 in 7.0 mi SSE 15.0 mph - N/A   Light Drizzle
12:53 PM 60.8 °F 59.0 °F 94% 29.66 in 7.0 mi SSE 13.8 mph - N/A Rain Light Rain
1:13 PM 60.8 °F 59.0 °F 94% 29.65 in 10.0 mi SSE 18.4 mph - N/A   Overcast
1:33 PM 62.6 °F 60.8 °F 94% 29.65 in 10.0 mi South 17.3 mph - N/A   Overcast
1:41 PM 62.6 °F 59.0 °F 88% 29.65 in 10.0 mi SSE 17.3 mph - N/A   Overcast
2:01 PM 62.6 °F 59.0 °F 88% 29.65 in 10.0 mi SSE 18.4 mph - N/A   Overcast
2:21 PM 62.6 °F 59.0 °F 88% 29.65 in 10.0 mi SSE 15.0 mph - N/A   Overcast
2:41 PM 62.6 °F 59.0 °F 88% 29.64 in 10.0 mi SSE 17.3 mph - N/A   Overcast
3:01 PM 62.6 °F 59.0 °F 88% 29.64 in 10.0 mi South 18.4 mph - N/A   Overcast
3:21 PM 64.4 °F 60.8 °F 88% 29.64 in 10.0 mi SSE 17.3 mph - N/A   Overcast
3:41 PM 66.2 °F 60.8 °F 83% 29.63 in 10.0 mi SSE 17.3 mph - N/A   Overcast
4:03 PM 68.0 °F 60.8 °F 78% 29.63 in 10.0 mi South 18.4 mph 24.2 mph N/A   Overcast
4:13 PM 68.0 °F 60.8 °F 78% 29.62 in 10.0 mi South 18.4 mph - N/A   Overcast
4:33 PM 69.8 °F 59.0 °F 68% 29.62 in 10.0 mi South 21.9 mph 26.5 mph N/A   Mostly Cloudy
4:53 PM 69.8 °F 59.0 °F 68% 29.61 in 10.0 mi South 18.4 mph 25.3 mph N/A   Scattered Clouds
5:13 PM 71.6 °F 59.0 °F 64% 29.60 in 10.0 mi SSE 19.6 mph 25.3 mph N/A   Scattered Clouds
5:33 PM 71.6 °F 59.0 °F 64% 29.60 in 10.0 mi South 18.4 mph 23.0 mph N/A   Scattered Clouds
5:53 PM 71.6 °F 57.2 °F 60% 29.59 in 10.0 mi South 18.4 mph 25.3 mph N/A   Scattered Clouds
6:13 PM 71.6 °F 57.2 °F 60% 29.59 in 10.0 mi South 16.1 mph - N/A   Scattered Clouds
6:33 PM 69.8 °F 57.2 °F 64% 29.59 in 10.0 mi SSE 15.0 mph - N/A   Scattered Clouds
6:53 PM 71.6 °F 57.2 °F 60% 29.58 in 10.0 mi South 12.7 mph - N/A   Mostly Cloudy
7:13 PM 71.6 °F 57.2 °F 60% 29.58 in 10.0 mi South 15.0 mph - N/A   Mostly Cloudy
7:33 PM 71.6 °F 57.2 °F 60% 29.58 in 10.0 mi South 17.3 mph - N/A   Scattered Clouds
7:54 PM 71.6 °F 57.2 °F 60% 29.58 in 10.0 mi South 11.5 mph - N/A   Mostly Cloudy
8:13 PM 73.4 °F 59.0 °F 61% 29.57 in 10.0 mi South 12.7 mph - N/A   Mostly Cloudy
8:33 PM 71.6 °F 57.2 °F 60% 29.57 in 10.0 mi SSW 16.1 mph - N/A   Mostly Cloudy
8:54 PM 69.8 °F 57.2 °F 64% 29.57 in 10.0 mi SSW 11.5 mph - N/A   Scattered Clouds
9:13 PM 66.2 °F 57.2 °F 73% 29.57 in 10.0 mi SW 8.1 mph - N/A   Clear
9:33 PM 66.2 °F 55.4 °F 68% 29.58 in 10.0 mi SSW 8.1 mph - N/A   Scattered Clouds
9:54 PM 64.4 °F 55.4 °F 73% 29.58 in 10.0 mi SSW 8.1 mph - N/A   Mostly Cloudy
10:13 PM 62.6 °F 53.6 °F 72% 29.58 in 10.0 mi SSW 5.8 mph - N/A   Scattered Clouds
10:33 PM 60.8 °F 53.6 °F 77% 29.59 in 10.0 mi SSW 6.9 mph - N/A   Clear
10:53 PM 57.2 °F 51.8 °F 82% 29.59 in 10.0 mi SSW 6.9 mph - N/A   Scattered Clouds
11:13 PM 60.8 °F 53.6 °F 77% 29.59 in 10.0 mi South 5.8 mph - N/A   Mostly Cloudy
11:34 PM 59.0 °F 53.6 °F 82% 29.59 in 10.0 mi SSE 8.1 mph - N/A   Scattered Clouds
11:53 PM 57.2 °F 51.8 °F 82% 29.59 in 10.0 mi South 3.5 mph - N/A   Clear